Time,TemperatureF,DewpointF,PressureIn,WindDirection,WindDirectionDegrees,WindSpeedMPH,WindSpeedGustMPH,Humidity,HourlyPrecipIn,Conditions,Clouds,dailyrainin,SoftwareType,DateUTC
2013-04-17 00:00:00,74.0,66.0,-100.00,SSE,160,5.0,-999.0,78,0.00,,,0.00,,2013-04-17 05:00:00,
2013-04-17 00:32:00,74.0,66.0,-100.00,SSE,160,5.0,-999.0,78,0.00,,,0.00,,2013-04-17 05:32:00,
2013-04-17 00:43:00,74.0,66.0,-100.00,SSE,160,5.0,-999.0,78,0.00,,,0.00,,2013-04-17 05:43:00,
2013-04-17 00:52:00,74.0,66.0,-100.00,SSE,160,5.0,-999.0,78,0.00,,,0.00,,2013-04-17 05:52:00,
2013-04-17 01:00:00,73.0,66.0,-100.00,SSE,153,6.0,-999.0,80,0.00,,,0.00,,2013-04-17 06:00:00,
2013-04-17 01:32:00,73.0,66.0,-100.00,SSE,153,6.0,-999.0,80,0.00,,,0.00,,2013-04-17 06:32:00,
2013-04-17 01:42:00,73.0,66.0,-100.00,SSE,153,6.0,-999.0,80,0.00,,,0.00,,2013-04-17 06:42:00,
2013-04-17 01:52:00,73.0,66.0,-100.00,SSE,153,6.0,-999.0,80,0.00,,,0.00,,2013-04-17 06:52:00,
2013-04-17 02:00:00,73.0,67.0,-100.00,SSE,156,8.0,-999.0,83,0.00,,,0.00,,2013-04-17 07:00:00,
2013-04-17 02:32:00,73.0,67.0,-100.00,SSE,156,8.0,-999.0,83,0.00,,,0.00,,2013-04-17 07:32:00,
2013-04-17 02:42:00,73.0,67.0,-100.00,SSE,156,8.0,-999.0,83,0.00,,,0.00,,2013-04-17 07:42:00,
2013-04-17 02:52:00,73.0,67.0,-100.00,SSE,156,8.0,-999.0,83,0.00,,,0.00,,2013-04-17 07:52:00,
2013-04-17 03:00:00,73.0,69.0,-100.00,SSE,156,6.0,-999.0,87,0.00,,,0.00,,2013-04-17 08:00:00,
2013-04-17 03:32:00,73.0,69.0,-100.00,SSE,156,6.0,-999.0,87,0.00,,,0.00,,2013-04-17 08:32:00,
2013-04-17 03:42:00,73.0,69.0,-100.00,SSE,156,6.0,-999.0,87,0.00,,,0.00,,2013-04-17 08:42:00,
2013-04-17 03:52:00,73.0,69.0,-100.00,SSE,156,6.0,-999.0,87,0.00,,,0.00,,2013-04-17 08:52:00,
2013-04-17 04:00:00,73.0,69.0,-100.00,SSE,147,7.0,-999.0,88,0.00,,,0.00,,2013-04-17 09:00:00,
2013-04-17 04:33:00,73.0,69.0,-100.00,SSE,147,7.0,-999.0,88,0.00,,,0.00,,2013-04-17 09:33:00,
2013-04-17 04:42:00,73.0,69.0,-100.00,SSE,147,7.0,-999.0,88,0.00,,,0.00,,2013-04-17 09:42:00,
2013-04-17 04:52:00,73.0,69.0,-100.00,SSE,147,7.0,-999.0,88,0.00,,,0.00,,2013-04-17 09:52:00,
2013-04-17 05:00:00,72.0,70.0,-100.00,SSE,160,7.0,-999.0,91,0.00,,,0.00,,2013-04-17 10:00:00,
2013-04-17 05:32:00,72.0,70.0,-100.00,SSE,160,7.0,-999.0,91,0.00,,,0.00,,2013-04-17 10:32:00,
2013-04-17 05:43:00,72.0,70.0,-100.00,SSE,160,7.0,-999.0,91,0.00,,,0.00,,2013-04-17 10:43:00,
2013-04-17 05:53:00,72.0,70.0,-100.00,SSE,160,7.0,-999.0,91,0.00,,,0.00,,2013-04-17 10:53:00,
2013-04-17 06:00:00,74.0,70.0,-100.00,SSE,162,11.0,-999.0,89,0.00,,,0.00,,2013-04-17 11:00:00,
2013-04-17 06:32:00,74.0,70.0,-100.00,SSE,162,11.0,-999.0,89,0.00,,,0.00,,2013-04-17 11:32:00,
2013-04-17 06:42:00,74.0,70.0,-100.00,SSE,162,11.0,-999.0,89,0.00,,,0.00,,2013-04-17 11:42:00,
2013-04-17 06:52:00,74.0,70.0,-100.00,SSE,162,11.0,-999.0,89,0.00,,,0.00,,2013-04-17 11:52:00,
2013-04-17 07:00:00,74.0,70.0,-100.00,SSE,163,8.0,-999.0,89,0.00,,,0.00,,2013-04-17 12:00:00,
2013-04-17 07:32:00,74.0,70.0,-100.00,SSE,163,8.0,-999.0,89,0.00,,,0.00,,2013-04-17 12:32:00,
2013-04-17 07:42:00,74.0,70.0,-100.00,SSE,163,8.0,-999.0,89,0.00,,,0.00,,2013-04-17 12:42:00,
2013-04-17 07:52:00,74.0,70.0,-100.00,SSE,163,8.0,-999.0,89,0.00,,,0.00,,2013-04-17 12:52:00,
2013-04-17 08:00:00,73.0,71.0,-100.00,SSE,162,10.0,-999.0,91,0.00,,,0.00,,2013-04-17 13:00:00,
2013-04-17 08:32:00,73.0,71.0,-100.00,SSE,162,10.0,-999.0,91,0.00,,,0.00,,2013-04-17 13:32:00,
2013-04-17 08:42:00,73.0,71.0,-100.00,SSE,162,10.0,-999.0,91,0.00,,,0.00,,2013-04-17 13:42:00,
2013-04-17 08:52:00,73.0,71.0,-100.00,SSE,162,10.0,-999.0,91,0.00,,,0.00,,2013-04-17 13:52:00,
2013-04-17 09:00:00,74.0,71.0,-100.00,SSE,158,11.0,-999.0,88,0.00,,,0.00,,2013-04-17 14:00:00,
2013-04-17 09:32:00,74.0,71.0,-100.00,SSE,158,11.0,-999.0,88,0.00,,,0.00,,2013-04-17 14:32:00,
2013-04-17 09:43:00,74.0,71.0,-100.00,SSE,158,11.0,-999.0,88,0.00,,,0.00,,2013-04-17 14:43:00,
2013-04-17 09:52:00,74.0,71.0,-100.00,SSE,158,11.0,-999.0,88,0.00,,,0.00,,2013-04-17 14:52:00,
2013-04-17 10:00:00,76.0,70.0,-100.00,SSE,164,14.0,-999.0,80,0.00,,,0.00,,2013-04-17 15:00:00,
2013-04-17 10:33:00,76.0,70.0,-100.00,SSE,164,14.0,-999.0,80,0.00,,,0.00,,2013-04-17 15:33:00,
2013-04-17 10:43:00,76.0,70.0,-100.00,SSE,164,14.0,-999.0,80,0.00,,,0.00,,2013-04-17 15:43:00,
2013-04-17 10:53:00,76.0,70.0,-100.00,SSE,164,14.0,-999.0,80,0.00,,,0.00,,2013-04-17 15:53:00,
2013-04-17 11:00:00,79.0,68.0,-100.00,SSE,163,14.0,-999.0,71,0.00,,,0.00,,2013-04-17 16:00:00,
2013-04-17 11:32:00,79.0,68.0,-100.00,SSE,163,14.0,-999.0,71,0.00,,,0.00,,2013-04-17 16:32:00,
2013-04-17 11:42:00,79.0,68.0,-100.00,SSE,163,14.0,-999.0,71,0.00,,,0.00,,2013-04-17 16:42:00,
2013-04-17 11:52:00,79.0,68.0,-100.00,SSE,163,14.0,-999.0,71,0.00,,,0.00,,2013-04-17 16:52:00,
2013-04-17 12:00:00,80.0,68.0,-100.00,SSE,160,14.0,-999.0,67,0.00,,,0.00,,2013-04-17 17:00:00,
2013-04-17 12:33:00,80.0,68.0,-100.00,SSE,160,14.0,-999.0,67,0.00,,,0.00,,2013-04-17 17:33:00,
2013-04-17 12:42:00,80.0,68.0,-100.00,SSE,160,14.0,-999.0,67,0.00,,,0.00,,2013-04-17 17:42:00,
2013-04-17 12:52:00,80.0,68.0,-100.00,SSE,160,14.0,-999.0,67,0.00,,,0.00,,2013-04-17 17:52:00,
2013-04-17 13:00:00,80.0,68.0,-100.00,SSE,163,15.0,-999.0,65,0.00,,,0.00,,2013-04-17 18:00:00,
2013-04-17 13:32:00,80.0,68.0,-100.00,SSE,163,15.0,-999.0,65,0.00,,,0.00,,2013-04-17 18:32:00,
2013-04-17 13:42:00,80.0,68.0,-100.00,SSE,163,15.0,-999.0,65,0.00,,,0.00,,2013-04-17 18:42:00,
2013-04-17 13:52:00,80.0,68.0,-100.00,SSE,163,15.0,-999.0,65,0.00,,,0.00,,2013-04-17 18:52:00,
2013-04-17 14:00:00,82.0,67.0,-100.00,SSE,164,18.0,-999.0,60,0.00,,,0.00,,2013-04-17 19:00:00,
2013-04-17 14:32:00,82.0,67.0,-100.00,SSE,164,18.0,-999.0,60,0.00,,,0.00,,2013-04-17 19:32:00,
2013-04-17 14:42:00,82.0,67.0,-100.00,SSE,164,18.0,-999.0,60,0.00,,,0.00,,2013-04-17 19:42:00,
2013-04-17 14:52:00,82.0,67.0,-100.00,SSE,164,18.0,-999.0,60,0.00,,,0.00,,2013-04-17 19:52:00,
2013-04-17 15:00:00,83.0,66.0,-100.00,SSE,163,16.0,-999.0,58,0.00,,,0.00,,2013-04-17 20:00:00,
2013-04-17 15:32:00,83.0,66.0,-100.00,SSE,163,16.0,-999.0,58,0.00,,,0.00,,2013-04-17 20:32:00,
2013-04-17 15:42:00,83.0,66.0,-100.00,SSE,163,16.0,-999.0,58,0.00,,,0.00,,2013-04-17 20:42:00,
2013-04-17 15:52:00,83.0,66.0,-100.00,SSE,163,16.0,-999.0,58,0.00,,,0.00,,2013-04-17 20:52:00,
2013-04-17 16:00:00,83.0,66.0,-100.00,SSE,163,13.0,-999.0,57,0.00,,,0.00,,2013-04-17 21:00:00,
2013-04-17 16:33:00,83.0,66.0,-100.00,SSE,163,13.0,-999.0,57,0.00,,,0.00,,2013-04-17 21:33:00,
2013-04-17 16:43:00,83.0,66.0,-100.00,SSE,163,13.0,-999.0,57,0.00,,,0.00,,2013-04-17 21:43:00,
2013-04-17 16:53:00,83.0,66.0,-100.00,SSE,163,13.0,-999.0,57,0.00,,,0.00,,2013-04-17 21:53:00,
2013-04-17 17:00:00,83.0,65.0,-100.00,SSE,164,16.0,-999.0,55,0.00,,,0.00,,2013-04-17 22:00:00,
2013-04-17 17:33:00,83.0,65.0,-100.00,SSE,164,16.0,-999.0,55,0.00,,,0.00,,2013-04-17 22:33:00,
2013-04-17 17:43:00,83.0,65.0,-100.00,SSE,164,16.0,-999.0,55,0.00,,,0.00,,2013-04-17 22:43:00,
2013-04-17 17:53:00,83.0,65.0,-100.00,SSE,164,16.0,-999.0,55,0.00,,,0.00,,2013-04-17 22:53:00,
2013-04-17 18:00:00,83.0,66.0,-100.00,SSE,164,16.0,-999.0,56,0.00,,,0.00,,2013-04-17 23:00:00,
2013-04-17 18:32:00,83.0,66.0,-100.00,SSE,164,16.0,-999.0,56,0.00,,,0.00,,2013-04-17 23:32:00,
2013-04-17 18:42:00,83.0,66.0,-100.00,SSE,164,16.0,-999.0,56,0.00,,,0.00,,2013-04-17 23:42:00,
2013-04-17 18:52:00,83.0,66.0,-100.00,SSE,164,16.0,-999.0,56,0.00,,,0.00,,2013-04-17 23:52:00,
2013-04-17 19:00:00,82.0,66.0,-100.00,SSE,164,14.0,-999.0,58,0.00,,,0.00,,2013-04-18 00:00:00,
2013-04-17 19:32:00,82.0,66.0,-100.00,SSE,164,14.0,-999.0,58,0.00,,,0.00,,2013-04-18 00:32:00,
2013-04-17 19:42:00,82.0,66.0,-100.00,SSE,164,14.0,-999.0,58,0.00,,,0.00,,2013-04-18 00:42:00,
2013-04-17 19:52:00,82.0,66.0,-100.00,SSE,164,14.0,-999.0,58,0.00,,,0.00,,2013-04-18 00:52:00,
2013-04-17 20:00:00,81.0,65.0,-100.00,SSE,168,13.0,-999.0,58,0.00,,,0.00,,2013-04-18 01:00:00,
2013-04-17 20:32:00,81.0,65.0,-100.00,SSE,168,13.0,-999.0,58,0.00,,,0.00,,2013-04-18 01:32:00,
2013-04-17 20:42:00,81.0,65.0,-100.00,SSE,168,13.0,-999.0,58,0.00,,,0.00,,2013-04-18 01:42:00,
2013-04-17 20:52:00,81.0,65.0,-100.00,SSE,168,13.0,-999.0,58,0.00,,,0.00,,2013-04-18 01:52:00,
2013-04-17 21:00:00,80.0,66.0,-100.00,SSE,166,14.0,-999.0,62,0.00,,,0.00,,2013-04-18 02:00:00,
2013-04-17 21:32:00,80.0,66.0,-100.00,SSE,166,14.0,-999.0,62,0.00,,,0.00,,2013-04-18 02:32:00,
2013-04-17 21:42:00,80.0,66.0,-100.00,SSE,166,14.0,-999.0,62,0.00,,,0.00,,2013-04-18 02:42:00,
2013-04-17 21:52:00,80.0,66.0,-100.00,SSE,166,14.0,-999.0,62,0.00,,,0.00,,2013-04-18 02:52:00,
2013-04-17 22:00:00,78.0,68.0,-100.00,SSE,168,15.0,-999.0,71,0.00,,,0.00,,2013-04-18 03:00:00,
2013-04-17 22:33:00,78.0,68.0,-100.00,SSE,168,15.0,-999.0,71,0.00,,,0.00,,2013-04-18 03:33:00,
2013-04-17 22:43:00,78.0,68.0,-100.00,SSE,168,15.0,-999.0,71,0.00,,,0.00,,2013-04-18 03:43:00,
2013-04-17 22:53:00,78.0,68.0,-100.00,SSE,168,15.0,-999.0,71,0.00,,,0.00,,2013-04-18 03:53:00,
2013-04-17 23:00:00,78.0,68.0,-100.00,SSE,163,23.0,-999.0,73,0.00,,,0.00,,2013-04-18 04:00:00,
2013-04-17 23:33:00,78.0,68.0,-100.00,SSE,163,23.0,-999.0,73,0.00,,,0.00,,2013-04-18 04:33:00,
2013-04-17 23:43:00,78.0,68.0,-100.00,SSE,163,23.0,-999.0,73,0.00,,,0.00,,2013-04-18 04:43:00,
2013-04-17 23:53:00,78.0,68.0,-100.00,SSE,163,23.0,-999.0,73,0.00,,,0.00,,2013-04-18 04:53:00,